Regional Weather Roundup
Issued by NWS Portland, ME

Home | Current Version | Previous Version | Text Only | Print | Product List | Glossary On
Versions: 1 2 3 4 5 6 7 8 9 10 11 12 13 14 15 16 17 18 19 20 21 22 23 24 25 26 27 28 29 30 31 32 33 34 35 36 37 38 39 40 41 42 43 44 45 46 47 48 49 50
000
ASUS41 KGYX 141710
RWRGYX
WEATHER ROUNDUP FOR MAINE AND NEW HAMPSHIRE
NATIONAL WEATHER SERVICE GRAY ME
1200 PM EST SUN FEB 14 2016

MEZ002-005-006-010-012-015-018-020-021-024-026-027-029-141800-
MAINE

CITY           SKY/WX    TMP DP  RH WIND       PRES   REMARKS
PORTLAND       SUNNY      6 -14  39 NW12G22   30.30F WCI  -9
SANFORD        SUNNY      5 -15  39 W14G21    30.29F WCI -12
BAR HARBOR     SUNNY      7 -15  36 W13G22    30.19S WCI  -9
WISCASSET      SUNNY      6 -18  32 MISG      30.29S
ROCKLAND       SUNNY      3 -15  43 NW12G22   30.24R WCI -13
FRYEBURG       SUNNY      9 -19  27 VRB7      30.24F
LEWISTONAUBURN SUNNY      3 -22  30 NW6G16    30.25S
AUGUSTA        SUNNY      2 -20  35 NW13G23   30.23F WCI -15
WATERVILLE     SUNNY      5 -18  33 W13G18    30.20F WCI -12
BANGOR         SUNNY      2 -18  38 NW16G28   30.20F WCI -18
GREENVILLE       N/A     -7 -22  48 NW10G18   30.04S WCI -25
MILLINOCKET    SUNNY     -1 -19  42 NW15G30   30.16F WCI -21
HOULTON        SUNNY      0 -16  46 NW15G24   30.07F WCI -19
PRESQUE ISLE   CLOUDY    -2 -15  54 W16G23    30.09F WCI -23
FRENCHVILLE    MIX PCPN  -6 -17  59 W21G26    30.00F WCI -30
CARIBOU        CLOUDY    -4 -17  53 NW14G28   30.06F WCI -24
$$

NHZ002-005-008-009-011-012-014-141800-
NEW HAMPSHIRE

CITY           SKY/WX    TMP DP  RH WIND       PRES   REMARKS
PORTSMOUTH     SUNNY      5 -17  36 W12       30.32F WCI -11
ROCHESTER      SUNNY      4 -16  39 NW14G20   30.28S WCI -14
NASHUA         SUNNY      7 -17  33 NW10      30.38S WCI  -8
MANCHESTER     SUNNY      3 -18  37 NW14G22   30.36S WCI -15
CONCORD        SUNNY      2 -18  38 W16       30.36F WCI -18
LACONIA        SUNNY      1 -24  29 W10G21    30.32F WCI -14
PLYMOUTH       FAIR      -2 -20  43 W17G23    30.34R WCI -24
BERLIN         SUNNY     -5 -21  46 W13G22    30.23F WCI -24
WHITEFIELD     SUNNY     -6 -20  50 W8        30.30F
JAFFREY          N/A      0 -20  38 N9        30.28F
KEENE          SUNNY      1 -18  39 N6        30.37F
LEBANON        SUNNY      0 -17  44 NW10G17   30.37F WCI -16
MT WASHINGTON  MOSUNNY  -27 -38  56 W63G78      N/A  WCI -73
$$

VTZ005-007-008-141800-
VERMONT

CITY           SKY/WX    TMP DP  RH WIND       PRES   REMARKS
ST JOHNSBURY     N/A     -4 -21  44 MISG      30.35F
MONTPELIER     FAIR      -9 -22  53 NW9G20    30.36R
BURLINGTON     FAIR      -5 -19  51 N9        30.49S
$$

MAZ007-012-024-CTZ003-RIZ002-NYZ038-NYZ072-141800-
SOUTHERN NEW ENGLAND AND NY

CITY           SKY/WX    TMP DP  RH WIND       PRES   REMARKS
BOSTON         SUNNY      5 -15  39 NW21G26   30.38F WCI -16
WORCESTER      SUNNY      0 -18  42 NW15G25   30.29R WCI -19
NANTUCKET      SUNNY      7  -3  64 NW16      30.36S WCI -11
PROVIDENCE     MOSUNNY    5 -17  35 NW12      30.42S WCI -11
HARTFORD       SUNNY      4 -18  35 CALM      30.45F
ALBANY         SUNNY      1 -19  38 VRB7      30.52F
NEW YORK CITY  MOSUNNY    8 -14  35 N7        30.53S
$$

ANZ081-ANZ082-ANZ150-NHZ014-MEZ023>029-141800-
COASTAL MARINE OBSERVATIONS

STATION/POSITION TIME  TEMP    WIND        PRES    WAVE
                       AIR SEA DIR/SP/G            HT/PER
                 (UTC) (F)     (DEG/KT/KT) (MB)    (FT/S)
MOUNT DESERT ROC 1700    6     320/ 30/ 36 1021.2F
MATINICUS ROCK   1700          320/ 26/ 30 1023.3R
ISLE OF SHOALS   1700    3     300/ 18/ 22 1026.5F
JEFFREYS LEDGE   1604      42                N/A     6/ 5
CASHES LEDGE BUO 1650    9 41  320/ 21/ 29 1024.0R   8/ 7
GEORGES BANK BUO 1650   21 44              1018.5R  14/ 9
$$

.............KEY..............
   WCI - WIND CHILL
   TC  - TEMPERATURE IN CELSIUS
   VSB - VISIBILITY IN MILES
   HX  - HEAT INDEX
   FAIR- INDICATES FEW OR NO CLOUDS BELOW 12,000 FT, WITH NO
         SIGNIFICANT WEATHER AND/OR OBSTRUCTIONS TO VISIBILITY.





USA.gov is the U.S. government's official web portal to all federal, state and local government web resources and services.